Aérodrome :
LOGIN :

S'inscrire | Disclaimer

   EN    FR    IT 

 










Légende :    VFR   VFR Marginal   IFR   IFR Intensif   IFR Très Intensif
Visi : 
Plafond : 
>= 8 km
>= 3000ft
5 à 8 km
1000 à 3000 ft
1500m à 5 km
500 à 1000 ft
800 à 1500m
200 à 500 ft
< 800m
< 200 ft
Symboles :   Orages  Brouillard  Fortes neiges  Fortes précipitations  Vent > 20 kt
SIGMETs :   Divers  Orages  Givrage  Turbulence  Onde Orograph.  Cendres Volcan.







- Altitude de l'aérodrome : 15 ft
- Code IATA : FCO


LIRF - Roma Leonardo da Vinci Fiumicino

DERNIER METAR :
  • 211020Z 28010KT CAVOK 28/19 Q1020 NOSIG

METARs EXPIRÉS :
  • 210950Z 28008KT 250V310 CAVOK 29/17 Q1020 NOSIG
  • 210920Z 28006KT 250V320 CAVOK 29/15 Q1020 NOSIG
  • 210850Z 27006KT 240V310 CAVOK 29/14 Q1020 NOSIG
  • 210820Z 27007KT CAVOK 28/16 Q1020 NOSIG
  • 210750Z 33004KT 280V010 CAVOK 27/17 Q1020 NOSIG

TAF TAF LIRF
Valide du 21 à 06h jusqu'au 22 à 12h UTC


210500Z 2106/2212 VRB05KT CAVOK
BECMG 2108/2110 27013KT
BECMG 2117/2119 VRB05KT
BECMG 2208/2210 25010KT
Pas de NOTAMs connus pour ce terrain.



MET'MAP, la Météo Aéronautique d'un coup d'oeil ! - Copyright ORBIFLY Décembre 2007 - Disclaimer

ORBIFLY MET'MAP TEAM :

Programmation & Développement : Alexandra Zaïnal
Conception & Développement : Baudouin d'Aumeries
Co-Programmation & Développement : Marc-Olivier Méhu
Soutien technique & logistique : Manuel Goepfert

Contact : metmap@orbifly.com




SOURCES & CREDITS :

   NOAA